NIGCOMSAT 1R

Last updated on Thu Oct 30 2025 00:02:49 GMT+0000 (Coordinated Universal Time)

1 38014U 11077A 25302.47948441 .00000000 00000+0 00000+0 0 9993 2 38014 0.0123 230.5849 0002310 60.2078 322.3990 1.00273936 50648
UTC large
Height (km)
Speed (km/s)
/
Latitude / Longitude
Inclination (degrees)
Orbital Period (minutes)
Azimuth
Elevation
Range (km)
Doppler Factor

Next 0 passes for location: London (51.5072 / 0.1276)

Sorry there are no passes over London.